Voltar ao catálogo

COSMOS 2177

GLONASS

AtivoNavegaçãoMEO
NORAD 21853·PAYLOAD·🇷🇺 Russia

Lançado Jan 29, 1992 de Baikonur Cosmodrome

Loading…

Próximas Passagens (próximas 24 horas)

TLE

AtualizadoSource: Space-Track

Época: Sep 13, 2026, 22:03 UTC

1 21853U 92005A   26256.91928941 -.00000014  00000-0  00000+0 0  9994
2 21853  64.9452  66.9301 0006860 169.7127   7.3111  2.13101183269447

Acompanhe COSMOS 2177 em tempo real com AllMySat

Download on the App Store